Year,Month,Day,Hour,Minute,Value (Times are PST for temperature in C)
2023,04,19,00,00,6.60
2023,04,19,00,01,6.60
2023,04,19,00,02,6.60
2023,04,19,00,03,6.60
2023,04,19,00,04,6.60
2023,04,19,00,05,6.60
2023,04,19,00,06,6.60
2023,04,19,00,07,6.60
2023,04,19,00,09,6.60
2023,04,19,00,10,6.60
2023,04,19,00,11,6.60
2023,04,19,00,12,6.60
2023,04,19,00,13,6.60
2023,04,19,00,14,6.60
2023,04,19,00,15,6.60
2023,04,19,00,16,6.60
2023,04,19,00,17,6.60
2023,04,19,00,18,6.60
2023,04,19,00,19,6.70
2023,04,19,00,20,6.70
2023,04,19,00,21,6.70
2023,04,19,00,22,6.70
2023,04,19,00,23,6.70
2023,04,19,00,24,6.70
2023,04,19,00,25,6.60
2023,04,19,00,26,6.60
2023,04,19,00,27,6.60
2023,04,19,00,28,6.60
2023,04,19,00,29,6.60
2023,04,19,00,30,6.60
2023,04,19,00,32,6.60
2023,04,19,00,33,6.60
2023,04,19,00,34,6.60
2023,04,19,00,35,6.60
2023,04,19,00,36,6.60
2023,04,19,00,37,6.60
2023,04,19,00,38,6.60
2023,04,19,00,39,6.60
2023,04,19,00,40,6.60
2023,04,19,00,41,6.60
2023,04,19,00,42,6.60
2023,04,19,00,43,6.60
2023,04,19,00,44,6.60
2023,04,19,00,45,6.40
2023,04,19,00,46,6.40
2023,04,19,00,47,6.40
2023,04,19,00,48,6.40
2023,04,19,00,49,6.40
2023,04,19,00,50,6.40
2023,04,19,00,51,6.40
2023,04,19,00,52,6.40
2023,04,19,00,53,6.40
2023,04,19,00,54,6.40
2023,04,19,00,55,6.60
2023,04,19,00,56,6.60
2023,04,19,00,57,6.60
2023,04,19,00,58,6.60
2023,04,19,00,59,6.60
2023,04,19,01,00,6.60
2023,04,19,01,01,6.60
2023,04,19,01,02,6.60
2023,04,19,01,03,6.60
2023,04,19,01,04,6.60
2023,04,19,01,05,6.60
2023,04,19,01,06,6.60
2023,04,19,01,07,6.60
2023,04,19,01,08,6.60
2023,04,19,01,09,6.60
2023,04,19,01,10,6.60
2023,04,19,01,11,6.60
2023,04,19,01,12,6.60
2023,04,19,01,13,6.60
2023,04,19,01,14,6.60
2023,04,19,01,15,6.60
2023,04,19,01,16,6.60
2023,04,19,01,17,6.60
2023,04,19,01,18,6.60
2023,04,19,01,19,6.60
2023,04,19,01,20,6.60
2023,04,19,01,21,6.60
2023,04,19,01,22,6.60
2023,04,19,01,23,6.60
2023,04,19,01,24,6.60
2023,04,19,01,25,6.60
2023,04,19,01,26,6.60
2023,04,19,01,27,6.60
2023,04,19,01,28,6.60
2023,04,19,01,29,6.60
2023,04,19,01,30,6.60
2023,04,19,01,31,6.60
2023,04,19,01,32,6.60
2023,04,19,01,33,6.60
2023,04,19,01,34,6.60
2023,04,19,01,35,6.60
2023,04,19,01,36,6.60
2023,04,19,01,37,6.60
2023,04,19,01,38,6.60
2023,04,19,01,39,6.60
2023,04,19,01,40,6.60
2023,04,19,01,41,6.60
2023,04,19,01,42,6.60
2023,04,19,01,43,6.60
2023,04,19,01,44,6.60
2023,04,19,01,45,6.60
2023,04,19,01,46,6.60
2023,04,19,01,47,6.60
2023,04,19,01,48,6.60
2023,04,19,01,49,6.60
2023,04,19,01,50,6.60
2023,04,19,01,51,6.60
2023,04,19,01,52,6.60
2023,04,19,01,53,6.60
2023,04,19,01,54,6.60
2023,04,19,01,55,6.60
2023,04,19,01,56,6.60
2023,04,19,01,57,6.60
2023,04,19,01,58,6.60
2023,04,19,01,59,6.60
2023,04,19,02,00,6.60
2023,04,19,02,01,6.60
2023,04,19,02,02,6.60
2023,04,19,02,03,6.60
2023,04,19,02,04,6.60
2023,04,19,02,05,6.60
2023,04,19,02,06,6.60
2023,04,19,02,07,6.60
2023,04,19,02,08,6.60
2023,04,19,02,09,6.60
2023,04,19,02,10,6.60
2023,04,19,02,11,6.60
2023,04,19,02,12,6.60
2023,04,19,02,13,6.60
2023,04,19,02,14,6.60
2023,04,19,02,15,6.60
2023,04,19,02,16,6.70
2023,04,19,02,17,6.70
2023,04,19,02,18,6.70
2023,04,19,02,19,6.70
2023,04,19,02,20,6.70
2023,04,19,02,21,6.60
2023,04,19,02,22,6.60
2023,04,19,02,23,6.60
2023,04,19,02,24,6.60
2023,04,19,02,25,6.60
2023,04,19,02,26,6.60
2023,04,19,02,27,6.60
2023,04,19,02,28,6.60
2023,04,19,02,29,6.60
2023,04,19,02,30,6.60
2023,04,19,02,31,6.60
2023,04,19,02,32,6.60
2023,04,19,02,33,6.60
2023,04,19,02,34,6.60
2023,04,19,02,35,6.60
2023,04,19,02,36,6.60
2023,04,19,02,37,6.60
2023,04,19,02,38,6.60
2023,04,19,02,39,6.60
2023,04,19,02,40,6.60
2023,04,19,02,41,6.60
2023,04,19,02,42,6.60
2023,04,19,02,43,6.60
2023,04,19,02,44,6.60
2023,04,19,02,45,6.40
2023,04,19,02,46,6.40
2023,04,19,02,47,6.40
2023,04,19,02,48,6.40
2023,04,19,02,49,6.40
2023,04,19,02,50,6.40
2023,04,19,02,51,6.40
2023,04,19,02,52,6.40
2023,04,19,02,53,6.40
2023,04,19,02,54,6.40
2023,04,19,02,55,6.40
2023,04,19,02,56,6.40
2023,04,19,02,57,6.40
2023,04,19,02,58,6.40
2023,04,19,02,59,6.40
2023,04,19,03,00,6.40
2023,04,19,03,01,6.40
2023,04,19,03,02,6.40
2023,04,19,03,03,6.40
2023,04,19,03,04,6.60
2023,04,19,03,05,6.60
2023,04,19,03,06,6.60
2023,04,19,03,07,6.60
2023,04,19,03,08,6.60
2023,04,19,03,09,6.60
2023,04,19,03,10,6.60
2023,04,19,03,11,6.60
2023,04,19,03,12,6.60
2023,04,19,03,13,6.60
2023,04,19,03,14,6.60
2023,04,19,03,15,6.60
2023,04,19,03,16,6.60
2023,04,19,03,17,6.60
2023,04,19,03,18,6.60
2023,04,19,03,19,6.60
2023,04,19,03,21,6.60
2023,04,19,03,23,6.70
2023,04,19,03,24,6.70
2023,04,19,03,26,6.60
2023,04,19,03,27,6.60
2023,04,19,03,28,6.60
2023,04,19,03,29,6.60
2023,04,19,03,30,6.60
2023,04,19,03,31,6.40
2023,04,19,03,32,6.40
2023,04,19,03,33,6.40
2023,04,19,03,34,6.60
2023,04,19,03,36,6.60
2023,04,19,03,37,6.60
2023,04,19,03,38,6.60
2023,04,19,03,39,6.60
2023,04,19,03,40,6.60
2023,04,19,03,41,6.60
2023,04,19,03,42,6.60
2023,04,19,03,43,6.60
2023,04,19,03,44,6.60
2023,04,19,03,45,6.60
2023,04,19,03,46,6.60
2023,04,19,03,47,6.40
2023,04,19,03,48,6.40
2023,04,19,03,49,6.40
2023,04,19,03,50,6.40
2023,04,19,03,51,6.40
2023,04,19,03,52,6.40
2023,04,19,03,53,6.40
2023,04,19,03,54,6.40
2023,04,19,03,55,6.40
2023,04,19,03,56,6.40
2023,04,19,03,57,6.40
2023,04,19,03,58,6.40
2023,04,19,03,59,6.40
2023,04,19,04,00,6.40
2023,04,19,04,01,6.40
2023,04,19,04,02,6.40
2023,04,19,04,03,6.40
2023,04,19,04,04,6.40
2023,04,19,04,05,6.40
2023,04,19,04,06,6.30
2023,04,19,04,07,6.30
2023,04,19,04,08,6.30
2023,04,19,04,09,6.30
2023,04,19,04,10,6.20
2023,04,19,04,11,6.30
2023,04,19,04,12,6.30
2023,04,19,04,13,6.40
2023,04,19,04,14,6.40
2023,04,19,04,15,6.40
2023,04,19,04,16,6.40
2023,04,19,04,17,6.40
2023,04,19,04,18,6.40
2023,04,19,04,19,6.40
2023,04,19,04,20,6.30
2023,04,19,04,21,6.30
2023,04,19,04,22,6.30
2023,04,19,04,23,6.30
2023,04,19,04,24,6.20
2023,04,19,04,25,6.20
2023,04,19,04,26,6.20
2023,04,19,04,27,6.20
2023,04,19,04,28,6.30
2023,04,19,04,29,6.30
2023,04,19,04,30,6.30
2023,04,19,04,31,6.40
2023,04,19,04,32,6.40
2023,04,19,04,33,6.30
2023,04,19,04,34,6.30
2023,04,19,04,35,6.20
2023,04,19,04,36,6.20
2023,04,19,04,37,6.20
2023,04,19,04,38,6.20
2023,04,19,04,39,6.20
2023,04,19,04,40,6.20
2023,04,19,04,41,6.20
2023,04,19,04,42,6.20
2023,04,19,04,43,6.20
2023,04,19,04,44,6.20
2023,04,19,04,45,6.20
2023,04,19,04,46,6.20
2023,04,19,04,47,6.20
2023,04,19,04,48,6.20
2023,04,19,04,49,6.20
2023,04,19,04,50,6.20
2023,04,19,04,51,6.20
2023,04,19,04,52,6.20
2023,04,19,04,53,6.20
2023,04,19,04,54,6.20
2023,04,19,04,55,6.20
2023,04,19,04,56,6.20
2023,04,19,04,57,6.20
2023,04,19,04,58,6.20
2023,04,19,04,59,6.20
2023,04,19,05,00,6.20
2023,04,19,05,01,6.20
2023,04,19,05,02,6.20
2023,04,19,05,03,6.20
2023,04,19,05,04,6.30
2023,04,19,05,05,6.30
2023,04,19,05,06,6.30
2023,04,19,05,07,6.40
2023,04,19,05,08,6.40
2023,04,19,05,09,6.30
2023,04,19,05,10,6.30
2023,04,19,05,11,6.30
2023,04,19,05,12,6.30
2023,04,19,05,13,6.30
2023,04,19,05,14,6.30
2023,04,19,05,15,6.30
2023,04,19,05,16,6.30
2023,04,19,05,17,6.30
2023,04,19,05,18,6.30
2023,04,19,05,19,6.30
2023,04,19,05,20,6.30
2023,04,19,05,21,6.30
2023,04,19,05,22,6.30
2023,04,19,05,23,6.30
2023,04,19,05,24,6.40
2023,04,19,05,25,6.40
2023,04,19,05,26,6.40
2023,04,19,05,27,6.40
2023,04,19,05,28,6.40
2023,04,19,05,29,6.40
2023,04,19,05,30,6.40
2023,04,19,05,31,6.40
2023,04,19,05,32,6.40
2023,04,19,05,33,6.40
2023,04,19,05,34,6.40
2023,04,19,05,35,6.40
2023,04,19,05,36,6.40
2023,04,19,05,37,6.40
2023,04,19,05,38,6.40
2023,04,19,05,39,6.40
2023,04,19,05,40,6.40
2023,04,19,05,41,6.40
2023,04,19,05,42,6.40
2023,04,19,05,43,6.40
2023,04,19,05,44,6.40
2023,04,19,05,45,6.40
2023,04,19,05,46,6.40
2023,04,19,05,47,6.40
2023,04,19,05,48,6.40
2023,04,19,05,49,6.40
2023,04,19,05,50,6.40
2023,04,19,05,51,6.30
2023,04,19,05,52,6.30
2023,04,19,05,53,6.30
2023,04,19,05,54,6.30
2023,04,19,05,55,6.30
2023,04,19,05,56,6.30
2023,04,19,05,57,6.40
2023,04,19,05,58,6.40
2023,04,19,05,59,6.40
2023,04,19,06,00,6.40
2023,04,19,06,01,6.40
2023,04,19,06,02,6.40
2023,04,19,06,03,6.40
2023,04,19,06,04,6.40
2023,04,19,06,05,6.40
2023,04,19,06,06,6.30
2023,04,19,06,07,6.30
2023,04,19,06,08,6.30
2023,04,19,06,09,6.30
2023,04,19,06,10,6.30
2023,04,19,06,11,6.40
2023,04,19,06,12,6.40
2023,04,19,06,13,6.40
2023,04,19,06,14,6.40
2023,04,19,06,15,6.40
2023,04,19,06,16,6.40
2023,04,19,06,17,6.40
2023,04,19,06,18,6.40
2023,04,19,06,19,6.40
2023,04,19,06,20,6.40
2023,04,19,06,21,6.40
2023,04,19,06,22,6.40
2023,04,19,06,23,6.40
2023,04,19,06,24,6.40
2023,04,19,06,25,6.40
2023,04,19,06,26,6.40
2023,04,19,06,27,6.40
2023,04,19,06,28,6.40
2023,04,19,06,29,6.40
2023,04,19,06,30,6.40
2023,04,19,06,32,6.40
2023,04,19,06,33,6.40
2023,04,19,06,34,6.60
2023,04,19,06,35,6.60
2023,04,19,06,36,6.60
2023,04,19,06,37,6.60
2023,04,19,06,38,6.60
2023,04,19,06,39,6.60
2023,04,19,06,40,6.60
2023,04,19,06,41,6.60
2023,04,19,06,42,6.60
2023,04,19,06,43,6.60
2023,04,19,06,44,6.60
2023,04,19,06,45,6.60
2023,04,19,06,46,6.40
2023,04,19,06,47,6.40
2023,04,19,06,48,6.40
2023,04,19,06,49,6.40
2023,04,19,06,50,6.40
2023,04,19,06,51,6.40
2023,04,19,06,52,6.30
2023,04,19,06,53,6.30
2023,04,19,06,54,6.30
2023,04,19,06,55,6.30
2023,04,19,06,56,6.30
2023,04,19,06,57,6.30
2023,04,19,06,58,6.30
2023,04,19,06,59,6.30
2023,04,19,07,00,6.30
2023,04,19,07,01,6.20
2023,04,19,07,02,6.20
2023,04,19,07,03,6.20
2023,04,19,07,04,6.20
2023,04,19,07,05,6.20
2023,04,19,07,06,6.20
2023,04,19,07,07,6.20
2023,04,19,07,08,6.20
2023,04,19,07,09,6.20
2023,04,19,07,10,6.20
2023,04,19,07,11,6.20
2023,04,19,07,12,6.30
2023,04,19,07,14,6.30
2023,04,19,07,15,6.30
2023,04,19,07,16,6.40
2023,04,19,07,17,6.40
2023,04,19,07,18,6.40
2023,04,19,07,19,6.40
2023,04,19,07,20,6.40
2023,04,19,07,21,6.40
2023,04,19,07,22,6.40
2023,04,19,07,23,6.40
2023,04,19,07,24,6.40
2023,04,19,07,25,6.40
2023,04,19,07,26,6.40
2023,04,19,07,27,6.40
2023,04,19,07,28,6.40
2023,04,19,07,29,6.40
2023,04,19,07,30,6.40
2023,04,19,07,31,6.40
2023,04,19,07,32,6.40
2023,04,19,07,33,6.40
2023,04,19,07,34,6.40
2023,04,19,07,35,6.40
2023,04,19,07,36,6.40
2023,04,19,07,37,6.40
2023,04,19,07,38,6.40
2023,04,19,07,39,6.60
2023,04,19,07,40,6.60
2023,04,19,07,41,6.60
2023,04,19,07,42,6.60
2023,04,19,07,43,6.60
2023,04,19,07,44,6.60
2023,04,19,07,45,6.60
2023,04,19,07,46,6.70
2023,04,19,07,47,6.70
2023,04,19,07,48,6.70
2023,04,19,07,49,6.70
2023,04,19,07,50,6.60
2023,04,19,07,51,6.60
2023,04,19,07,52,6.60
2023,04,19,07,53,6.70
2023,04,19,07,54,6.70
2023,04,19,07,55,6.70
2023,04,19,07,56,6.70
2023,04,19,07,57,6.70
2023,04,19,07,58,6.70
2023,04,19,07,59,6.70
2023,04,19,08,00,6.70
2023,04,19,08,01,6.80
2023,04,19,08,02,6.80
2023,04,19,08,03,6.80
2023,04,19,08,04,6.80
2023,04,19,08,05,6.80
2023,04,19,08,06,6.80
2023,04,19,08,07,6.80
2023,04,19,08,08,6.90
2023,04,19,08,09,6.90
2023,04,19,08,10,6.90
2023,04,19,08,11,6.90
2023,04,19,08,12,6.90
2023,04,19,08,13,6.90
2023,04,19,08,14,6.90
2023,04,19,08,15,6.90
2023,04,19,08,16,7.00
2023,04,19,08,17,7.00
2023,04,19,08,18,7.00
2023,04,19,08,19,7.10
2023,04,19,08,20,7.20
2023,04,19,08,21,7.30
2023,04,19,08,22,7.30
2023,04,19,08,23,7.40
2023,04,19,08,24,7.40
2023,04,19,08,25,7.40
2023,04,19,08,26,7.50
2023,04,19,08,27,7.50
2023,04,19,08,28,7.50
2023,04,19,08,29,7.60
2023,04,19,08,30,7.50
2023,04,19,08,31,7.50
2023,04,19,08,32,7.50
2023,04,19,08,33,7.50
2023,04,19,08,34,7.50
2023,04,19,08,35,7.60
2023,04,19,08,36,7.60
2023,04,19,08,37,7.60
2023,04,19,08,38,7.70
2023,04,19,08,39,7.70
2023,04,19,08,40,7.70
2023,04,19,08,41,7.80
2023,04,19,08,42,7.80
2023,04,19,08,43,7.80
2023,04,19,08,44,7.80
2023,04,19,08,45,7.90
2023,04,19,08,46,7.90
2023,04,19,08,47,7.90
2023,04,19,08,48,7.90
2023,04,19,08,49,7.90
2023,04,19,08,50,7.90
2023,04,19,08,51,7.90
2023,04,19,08,52,7.90
2023,04,19,08,53,7.90
2023,04,19,09,04,7.80
2023,04,19,09,05,7.80
2023,04,19,09,06,7.80
2023,04,19,09,07,7.80
2023,04,19,09,08,7.70
2023,04,19,09,09,7.70
2023,04,19,09,10,7.70
2023,04,19,09,11,7.70
2023,04,19,09,12,7.70
2023,04,19,09,13,7.70
2023,04,19,09,14,7.70
2023,04,19,09,15,7.60
2023,04,19,09,16,7.60
2023,04,19,09,17,7.60
2023,04,19,09,18,7.50
2023,04,19,09,19,7.50
2023,04,19,09,20,7.50
2023,04,19,09,21,7.50
2023,04,19,09,22,7.50
2023,04,19,09,23,7.50
2023,04,19,09,24,7.50
2023,04,19,09,25,7.50
2023,04,19,09,26,7.50
2023,04,19,09,27,7.50
2023,04,19,09,28,7.50
2023,04,19,09,29,7.50
2023,04,19,09,30,7.60
2023,04,19,09,31,7.60
2023,04,19,09,32,7.60
2023,04,19,09,33,7.70
2023,04,19,09,34,7.70
2023,04,19,09,35,7.70
2023,04,19,09,36,7.70
2023,04,19,09,37,7.80
2023,04,19,09,38,7.80
2023,04,19,09,39,7.80
2023,04,19,09,40,7.80
2023,04,19,09,41,7.80
2023,04,19,09,42,7.80
2023,04,19,09,43,7.80
2023,04,19,09,44,7.90
2023,04,19,09,45,7.90
2023,04,19,09,46,8.00
2023,04,19,09,47,8.10
2023,04,19,09,48,8.10
2023,04,19,09,49,8.20
2023,04,19,09,50,8.20
2023,04,19,09,51,8.20
2023,04,19,09,52,8.30
2023,04,19,09,53,8.40
2023,04,19,09,54,8.50
2023,04,19,09,55,8.60
2023,04,19,09,56,8.60
2023,04,19,09,57,8.70
2023,04,19,09,58,8.70
2023,04,19,09,59,8.70
2023,04,19,10,00,8.70
2023,04,19,10,01,8.80
2023,04,19,10,02,8.80
2023,04,19,10,03,8.90
2023,04,19,10,04,8.90
2023,04,19,10,05,9.00
2023,04,19,10,06,9.00
2023,04,19,10,07,9.00
2023,04,19,10,08,9.10
2023,04,19,10,09,9.00
2023,04,19,10,10,9.00
2023,04,19,10,11,9.00
2023,04,19,10,12,9.00
2023,04,19,10,13,8.90
2023,04,19,10,14,8.90
2023,04,19,10,15,8.90
2023,04,19,10,16,8.90
2023,04,19,10,17,8.90
2023,04,19,10,18,9.00
2023,04,19,10,19,9.00
2023,04,19,10,20,9.10
2023,04,19,10,21,9.10
2023,04,19,10,22,9.20
2023,04,19,10,23,9.20
2023,04,19,10,24,9.30
2023,04,19,10,25,9.40
2023,04,19,10,26,9.40
2023,04,19,10,27,9.50
2023,04,19,10,28,9.60
2023,04,19,10,29,9.60
2023,04,19,10,30,9.60
2023,04,19,10,31,9.70
2023,04,19,10,32,9.70
2023,04,19,10,33,9.70
2023,04,19,10,34,9.70
2023,04,19,10,35,9.70
2023,04,19,10,36,9.70
2023,04,19,10,38,9.70
2023,04,19,11,29,10.70
2023,04,19,11,30,10.80
2023,04,19,11,31,10.80
2023,04,19,11,32,10.80
2023,04,19,11,33,10.80
2023,04,19,11,34,10.80
2023,04,19,11,36,10.80
2023,04,19,11,37,10.80
2023,04,19,11,38,10.80
2023,04,19,11,39,10.80
2023,04,19,11,40,10.90
2023,04,19,11,41,10.90
2023,04,19,11,42,10.90
2023,04,19,11,43,10.90
2023,04,19,11,44,10.90
2023,04,19,11,45,10.90
2023,04,19,11,46,10.90
2023,04,19,11,47,10.90
2023,04,19,11,48,10.90
2023,04,19,11,49,10.90
2023,04,19,11,50,10.90
2023,04,19,11,51,10.80
2023,04,19,11,52,10.70
2023,04,19,11,53,10.60
2023,04,19,11,54,10.60
2023,04,19,11,55,10.60
2023,04,19,11,56,10.40
2023,04,19,11,57,10.40
2023,04,19,11,58,10.30
2023,04,19,11,59,10.30
2023,04,19,12,00,10.20
2023,04,19,12,01,10.20
2023,04,19,12,02,10.20
2023,04,19,12,03,10.20
2023,04,19,12,04,10.10
2023,04,19,12,05,10.20
2023,04,19,12,06,10.20
2023,04,19,12,07,10.20
2023,04,19,12,08,10.20
2023,04,19,12,09,10.30
2023,04,19,12,10,10.40
2023,04,19,12,11,10.40
2023,04,19,12,12,10.60
2023,04,19,12,13,10.60
2023,04,19,12,14,10.70
2023,04,19,12,15,10.70
2023,04,19,12,16,10.70
2023,04,19,12,17,10.80
2023,04,19,12,18,10.80
2023,04,19,12,19,10.70
2023,04,19,12,20,10.70
2023,04,19,12,21,10.70
2023,04,19,12,22,10.70
2023,04,19,12,23,10.60
2023,04,19,12,24,10.60
2023,04,19,12,25,10.60
2023,04,19,12,26,10.60
2023,04,19,12,27,10.60
2023,04,19,12,28,10.60
2023,04,19,12,29,10.40
2023,04,19,12,30,10.40
2023,04,19,12,32,10.40
2023,04,19,12,33,10.40
2023,04,19,12,34,10.40
2023,04,19,12,35,10.40
2023,04,19,12,36,10.40
2023,04,19,12,37,10.40
2023,04,19,12,38,10.60
2023,04,19,12,39,10.60
2023,04,19,12,40,10.60
2023,04,19,12,41,10.70
2023,04,19,12,42,10.80
2023,04,19,12,43,10.90
2023,04,19,12,44,10.90
2023,04,19,12,45,10.90
2023,04,19,12,46,10.90
2023,04,19,12,47,11.10
2023,04,19,12,48,11.10
2023,04,19,12,49,11.10
2023,04,19,12,50,11.10
2023,04,19,12,51,11.10
2023,04,19,12,52,11.10
2023,04,19,12,53,10.90
2023,04,19,12,54,10.90
2023,04,19,12,55,10.90
2023,04,19,12,56,10.90
2023,04,19,12,57,10.90
2023,04,19,12,58,10.80
2023,04,19,12,59,10.70
2023,04,19,13,00,10.70
2023,04,19,13,01,10.60
2023,04,19,13,02,10.60
2023,04,19,13,03,10.60
2023,04,19,13,04,10.60
2023,04,19,13,05,10.70
2023,04,19,13,06,10.70
2023,04,19,13,07,10.70
2023,04,19,13,08,10.70
2023,04,19,13,09,10.70
2023,04,19,13,10,10.70
2023,04,19,13,11,10.70
2023,04,19,13,12,10.70
2023,04,19,13,13,10.70
2023,04,19,13,14,10.70
2023,04,19,13,15,10.70
2023,04,19,13,16,10.80
2023,04,19,13,17,10.80
2023,04,19,13,18,10.80
2023,04,19,13,19,10.80
2023,04,19,13,20,10.80
2023,04,19,13,21,10.90
2023,04,19,13,22,10.90
2023,04,19,13,23,10.90
2023,04,19,13,24,10.90
2023,04,19,13,25,10.90
2023,04,19,13,26,10.90
2023,04,19,13,27,10.90
2023,04,19,13,28,10.90
2023,04,19,13,29,10.90
2023,04,19,13,30,10.90
2023,04,19,13,31,10.90
2023,04,19,13,32,10.80
2023,04,19,13,33,10.70
2023,04,19,13,34,10.70
2023,04,19,13,35,10.70
2023,04,19,13,36,10.70
2023,04,19,13,37,10.60
2023,04,19,13,38,10.60
2023,04,19,13,39,10.60
2023,04,19,13,40,10.60
2023,04,19,13,41,10.60
2023,04,19,13,42,10.60
2023,04,19,13,43,10.70
2023,04,19,13,44,10.70
2023,04,19,13,45,10.80
2023,04,19,13,46,10.90
2023,04,19,13,47,10.90
2023,04,19,13,48,10.90
2023,04,19,13,49,10.90
2023,04,19,13,50,11.10
2023,04,19,13,51,11.10
2023,04,19,13,52,11.10
2023,04,19,13,53,11.10
2023,04,19,13,54,11.10
2023,04,19,13,55,11.10
2023,04,19,13,56,11.20
2023,04,19,13,57,11.20
2023,04,19,13,58,11.20
2023,04,19,13,59,11.20
2023,04,19,14,00,11.20
2023,04,19,14,01,11.30
2023,04,19,14,02,11.30
2023,04,19,14,03,11.30
2023,04,19,14,04,11.30
2023,04,19,14,05,11.30
2023,04,19,14,06,11.30
2023,04,19,14,07,11.30
2023,04,19,14,08,11.30
2023,04,19,14,09,11.30
2023,04,19,14,10,11.40
2023,04,19,14,11,11.40
2023,04,19,14,12,11.40
2023,04,19,14,13,11.40
2023,04,19,14,14,11.40
2023,04,19,14,15,11.40
2023,04,19,14,16,11.60
2023,04,19,14,17,11.60
2023,04,19,14,18,11.60
2023,04,19,14,19,11.60
2023,04,19,14,20,11.60
2023,04,19,14,21,11.60
2023,04,19,14,22,11.60
2023,04,19,14,23,11.60
2023,04,19,14,24,11.60
2023,04,19,14,25,11.60
2023,04,19,14,26,11.40
2023,04,19,14,27,11.40
2023,04,19,14,28,11.40
2023,04,19,14,29,11.40
2023,04,19,14,30,11.40
2023,04,19,14,31,11.30
2023,04,19,14,32,11.30
2023,04,19,14,33,11.30
2023,04,19,14,34,11.30
2023,04,19,14,35,11.20
2023,04,19,14,36,11.20
2023,04,19,14,37,11.20
2023,04,19,14,38,11.20
2023,04,19,14,39,11.20
2023,04,19,14,40,11.20
2023,04,19,14,41,11.20
2023,04,19,14,42,11.20
2023,04,19,14,43,11.20
2023,04,19,14,44,11.20
2023,04,19,14,45,11.20
2023,04,19,14,46,11.20
2023,04,19,14,48,11.20
2023,04,19,14,49,11.20
2023,04,19,14,51,11.10
2023,04,19,14,52,11.10
2023,04,19,14,53,11.10
2023,04,19,14,54,11.10
2023,04,19,14,55,11.10
2023,04,19,14,56,10.90
2023,04,19,14,57,10.90
2023,04,19,14,58,10.90
2023,04,19,14,59,10.90
2023,04,19,15,00,10.80
2023,04,19,15,01,10.80
2023,04,19,15,02,10.80
2023,04,19,15,03,10.70
2023,04,19,15,04,10.70
2023,04,19,15,05,10.70
2023,04,19,15,06,10.70
2023,04,19,15,07,10.70
2023,04,19,15,08,10.70
2023,04,19,15,09,10.70
2023,04,19,15,10,10.70
2023,04,19,15,11,10.60
2023,04,19,15,12,10.60
2023,04,19,15,13,10.70
2023,04,19,15,14,10.70
2023,04,19,15,15,10.70
2023,04,19,15,16,10.70
2023,04,19,15,17,10.80
2023,04,19,15,18,10.80
2023,04,19,15,19,10.80
2023,04,19,15,20,10.80
2023,04,19,15,21,10.90
2023,04,19,15,22,10.90
2023,04,19,15,23,10.90
2023,04,19,15,24,10.90
2023,04,19,15,25,10.90
2023,04,19,15,26,10.90
2023,04,19,15,27,10.90
2023,04,19,15,28,10.90
2023,04,19,15,29,10.90
2023,04,19,15,30,11.10
2023,04,19,15,31,11.10
2023,04,19,15,32,11.10
2023,04,19,15,33,11.10
2023,04,19,15,34,11.10
2023,04,19,15,35,11.10
2023,04,19,15,36,11.10
2023,04,19,15,37,11.10
2023,04,19,15,38,11.10
2023,04,19,15,39,11.20
2023,04,19,15,40,11.20
2023,04,19,15,41,11.20
2023,04,19,15,42,11.30
2023,04,19,15,43,11.30
2023,04,19,15,44,11.40
2023,04,19,15,45,11.40
2023,04,19,15,46,11.60
2023,04,19,15,47,11.60
2023,04,19,15,48,11.70
2023,04,19,15,49,11.80
2023,04,19,15,50,11.80
2023,04,19,15,51,11.80
2023,04,19,15,52,11.80
2023,04,19,15,53,11.90
2023,04,19,15,54,11.90
2023,04,19,15,55,11.90
2023,04,19,15,56,11.90
2023,04,19,15,57,11.90
2023,04,19,15,58,11.90
2023,04,19,15,59,11.90
2023,04,19,16,00,11.90
2023,04,19,16,01,11.80
2023,04,19,16,02,11.80
2023,04,19,16,03,11.80
2023,04,19,16,04,11.80
2023,04,19,16,05,11.80
2023,04,19,16,06,11.80
2023,04,19,16,07,11.80
2023,04,19,16,08,11.80
2023,04,19,16,09,11.80
2023,04,19,16,10,11.80
2023,04,19,16,11,11.80
2023,04,19,16,12,11.80
2023,04,19,16,13,11.80
2023,04,19,16,14,11.80
2023,04,19,16,15,11.80
2023,04,19,16,16,11.80
2023,04,19,16,17,11.80
2023,04,19,16,18,11.80
2023,04,19,16,19,11.80
2023,04,19,16,20,11.80
2023,04,19,16,21,11.80
2023,04,19,16,22,11.80
2023,04,19,16,23,11.80
2023,04,19,16,24,11.80
2023,04,19,16,25,11.80
2023,04,19,16,26,11.80
2023,04,19,16,27,11.90
2023,04,19,16,28,11.90
2023,04,19,16,29,11.90
2023,04,19,16,30,12.00
2023,04,19,16,31,12.00
2023,04,19,16,32,12.00
2023,04,19,16,33,12.10
2023,04,19,16,34,12.10
2023,04,19,16,35,12.00
2023,04,19,16,36,12.00
2023,04,19,16,37,11.90
2023,04,19,16,38,11.90
2023,04,19,16,39,11.90
2023,04,19,16,40,11.90
2023,04,19,16,41,11.90
2023,04,19,16,42,11.80
2023,04,19,16,43,11.80
2023,04,19,16,44,11.80
2023,04,19,16,45,11.80
2023,04,19,16,46,11.80
2023,04,19,16,47,11.80
2023,04,19,16,48,11.90
2023,04,19,16,49,11.90
2023,04,19,16,50,11.90
2023,04,19,16,51,12.00
2023,04,19,16,52,12.00
2023,04,19,16,53,12.00
2023,04,19,16,54,12.00
2023,04,19,16,55,12.00
2023,04,19,16,56,12.00
2023,04,19,16,57,11.90
2023,04,19,16,58,11.90
2023,04,19,16,59,11.80
2023,04,19,17,00,11.80
2023,04,19,17,01,11.80
2023,04,19,17,02,11.70
2023,04,19,17,03,11.60
2023,04,19,17,04,11.60
2023,04,19,17,05,11.60
2023,04,19,17,06,11.60
2023,04,19,17,07,11.60
2023,04,19,17,08,11.60
2023,04,19,17,09,11.60
2023,04,19,17,10,11.60
2023,04,19,17,11,11.60
2023,04,19,17,12,11.60
2023,04,19,17,13,11.60
2023,04,19,17,14,11.60
2023,04,19,17,15,11.60
2023,04,19,17,16,11.60
2023,04,19,17,17,11.70
2023,04,19,17,18,11.80
2023,04,19,17,19,11.80
2023,04,19,17,20,11.80
2023,04,19,17,21,11.90
2023,04,19,17,22,11.90
2023,04,19,17,23,12.00
2023,04,19,17,24,12.00
2023,04,19,17,25,12.10
2023,04,19,17,26,12.10
2023,04,19,17,27,12.20
2023,04,19,17,28,12.20
2023,04,19,17,29,12.20
2023,04,19,17,30,12.10
2023,04,19,17,31,12.10
2023,04,19,17,32,12.00
2023,04,19,17,33,11.90
2023,04,19,17,34,11.90
2023,04,19,17,35,11.80
2023,04,19,17,36,11.80
2023,04,19,17,37,11.80
2023,04,19,17,38,11.80
2023,04,19,17,39,11.70
2023,04,19,17,40,11.60
2023,04,19,17,41,11.60
2023,04,19,17,42,11.60
2023,04,19,17,43,11.60
2023,04,19,17,44,11.60
2023,04,19,17,45,11.60
2023,04,19,17,46,11.60
2023,04,19,17,47,11.60
2023,04,19,17,48,11.40
2023,04,19,17,49,11.40
2023,04,19,17,50,11.40
2023,04,19,17,51,11.40
2023,04,19,17,52,11.40
2023,04,19,17,53,11.40
2023,04,19,17,54,11.40
2023,04,19,17,55,11.40
2023,04,19,17,56,11.30
2023,04,19,17,57,11.30
2023,04,19,17,58,11.30
2023,04,19,17,59,11.30
2023,04,19,18,00,11.30
2023,04,19,18,01,11.30
2023,04,19,18,02,11.40
2023,04,19,18,03,11.40
2023,04,19,18,04,11.40
2023,04,19,18,05,11.40
2023,04,19,18,06,11.40
2023,04,19,18,07,11.40
2023,04,19,18,08,11.30
2023,04,19,18,09,11.20
2023,04,19,18,10,11.20
2023,04,19,18,11,11.10
2023,04,19,18,12,10.90
2023,04,19,18,13,10.90
2023,04,19,18,14,10.80
2023,04,19,18,15,10.70
2023,04,19,18,16,10.60
2023,04,19,18,17,10.60
2023,04,19,18,18,10.60
2023,04,19,18,19,10.40
2023,04,19,18,20,10.40
2023,04,19,18,21,10.40
2023,04,19,18,22,10.40
2023,04,19,18,23,10.30
2023,04,19,18,24,10.30
2023,04,19,18,25,10.30
2023,04,19,18,26,10.30
2023,04,19,18,27,10.40
2023,04,19,18,28,10.40
2023,04,19,18,29,10.40
2023,04,19,18,30,10.40
2023,04,19,18,32,10.40
2023,04,19,18,33,10.60
2023,04,19,18,34,10.60
2023,04,19,18,35,10.60
2023,04,19,18,36,10.70
2023,04,19,18,37,10.80
2023,04,19,18,38,10.80
2023,04,19,18,39,10.90
2023,04,19,18,40,10.90
2023,04,19,18,41,10.90
2023,04,19,18,42,10.90
2023,04,19,18,43,11.10
2023,04,19,18,44,11.10
2023,04,19,18,45,11.10
2023,04,19,18,46,11.10
2023,04,19,18,47,11.10
2023,04,19,18,48,11.10
2023,04,19,18,49,11.10
2023,04,19,18,50,11.10
2023,04,19,18,51,11.10
2023,04,19,18,52,11.10
2023,04,19,18,53,11.10
2023,04,19,18,54,11.10
2023,04,19,18,55,11.10
2023,04,19,18,56,10.90
2023,04,19,18,57,10.90
2023,04,19,18,58,10.90
2023,04,19,18,59,10.70
2023,04,19,19,00,10.60